STARLINK-34539, 64674

Orbit data source: Space-Track

STARLINK-34539, 64674 is a payload satellite owned by SpaceX/Seattle (US) in LEO that was launched on Sat, 28 Jun 2025 UTC via an FALCON 9 launch vehicle from the Air Force Eastern Test Range (AFETR). Payload-class satellites include a variety of spacecraft equipped with specific instruments for various scientific and technological missions. These include communications satellites like Starlink; space stations such as the ISS; scientific satellites like the Hubble; Earth observation satellites from companies like Planet Labs, Umbra, and HawkEye 360; GPS; miniature CubeSats for education and research; and military/defense satellites.

Loading next visibility...
Identifier
64674, 2025-139L
Orbit
LEO
Country
Flag of USUS
Related business
Manufacturer
SpaceX/Seattle
Mission
Operational Commercial Communications
Bus & Motor
STARLINK V2MO, Unknown motor
Mass
575 kg wet, ~530 kg dry
Launch date (UTC)
2025-06-28 (1 year ago)
Launch vehicle
FALCON 9
Launch site
Air Force Eastern Test Range (AFETR)
Object type
Payload
Rocket body
Debris
Shape & HBR
Box + 2 Pan, 17.7 m
Radar Cross Section
36.964 m², Large (>1 m²)

Expand to show TLE details & history
Last TLE update: 20 hours ago

TLE from 20 hours ago
0 STARLINK-34539
1 64674U 25139L   26170.99780468  .00032776  00000-0  97661-3 0  9991
2 64674  53.1594  10.0106 0001005  82.9306 277.1811 15.34410978 55872
Epoch: 2026-06-19T23:56Z
TLE epoch observation values (Epoch: 2026-06-19T23:56:50.324Z)
Latitude
-0°
Longitude
102.58217°
Altitude
463.486 km
Speed
7.636 km/s
True Right ascension
00h 40m 02s
True Declination
0° 00' 00"
Sunlit
Object was in daylight at epoch
Visualization orbit readout
Latitude
Unknown
Longitude
Unknown
Altitude
Unknown
Speed
Unknown
Apparent Right ascension
Unknown
Apparent Declination
Unknown
Sunlit
N/A
Visualization observer readout
Local Sidereal Time
07:21:02
Azimuth
Unknown
Elevation
Unknown
Doppler factor
Unknown
Orbital elements
Apogee altitude
463.615 km
Perigee altitude
462.24 km
Semi-major axis
6,841.065 km
Eccentricity
0.0001
Inclination
53.1594°
RAAN
10.0106°
Arg. of periapsis
82.9306°
True anomaly
277.16967°
Mean anomaly
277.1811°
Eccentric anomaly
277.17539°
Mean motion
3.83581 °/min
Orbital period
93.85 mins
BSTAR
0.00097661
Loading maneuver chart data...
Computing Atmospheric mass density...
Loading historical data...
Loading historical data...
Loading historical data...
Loading historical data...
Loading historical data...
Loading historical data...
Loading historical data...

Documentation

Showing up to 5 results
|